TISTTNCM

Guest
Details From TIST - St Thomas - Cyril E King
To TNCM - St Maarten - Princess Juliana Intl
Flight Number -
Tags generated
Created
Modified
Stats Distance 108 nm / 200 km
Max Altitude 0 ft / 0 m
Waypoints 2
Social Downloads 21
Likes 0
Share

Download

Looking for another format? Having issues loading an existing format? Contact us
Advertisement - Login to hide

Notes

Basic altitude profile: - Ascent Rate: 2000ft/min - Ascent Speed: 250kts - Cruise Altitude: 300ft - Cruise Speed: 420kts - Descent Rate: 1500ft/min - Descent Speed: 250kts Options: - Use NATs: yes - Use PACOTS: yes - Use low airways: no - Use high airways: no

Route

TIST TNCM

ID Type Via Altitude (ft/m) Position (lat/lon) Dist (leg/tot) Name
O TIST APT - 0 / 0 18.33730 / -64.97334 - / 0 nm St Thomas - Cyril E King
O TNCM APT - 0 / 0 18.04089 / -63.10897 107 / 107 nm St Maarten - Princess Juliana Intl

Altitude Profile

Advertisement - Login to hide

TIST

Details ICAO TIST (STT)
Name St Thomas - Cyril E King
Region USA (U.S. Virgin Islands)
Timezone Unknown
Stats Elevation 22 ft / 7 m (AMSL)
Location 18.337300° -64.973300°
Runways 1
Magnetic Variation 13.784° W

METAR

TIST 240253Z 16006KT 10SM CLR 28/24 A2994 RMK AO2 SLP139 T02830239 51014

Decode

TAF

TAF TIST 232336Z 2400/2424 20007KT P6SM FEW030 SCT250 FM240800 VRB04KT P6SM FEW025 SCT035 FM241400 16011KT P6SM SCT030

Decode

Departure Runways

ID Width Length Bearing (true/mag) Surface Threshold Overrun Markings Lighting
10 151 ft / 46 m 6,992 ft / 2,131 m 87.44° / 101.22° ASPHALT 0 ft / 0 m 200 ft / 61 m PREC-APP EDGE THRESHOLD REIL-OMNI
28 151 ft / 46 m 6,992 ft / 2,131 m 267.44° / 281.23° ASPHALT 2,300 ft / 701 m 200 ft / 61 m APP EDGE THRESHOLD

TNCM

Details ICAO TNCM (SXM)
Name Princess Juliana Intl
Region Caribbean Netherlands, Aruba, Curaçao, Sint Maarten
Timezone Unknown
Stats Elevation 14 ft / 4 m (AMSL)
Location 18.040900° -63.108900°
Runways 1
Magnetic Variation 14.428° W

METAR

TNCM 240300Z 09004KT 070V130 9999 FEW018 28/25 Q1015

Decode

TAF

TNCM 232336Z 2400/2424 VRB05KT P6SM FEW018 FM241400 13011KT P6SM FEW020

Decode

Destination Runways

ID Width Length Bearing (true/mag) Surface Threshold Overrun Markings Lighting
10 148 ft / 45 m 7,553 ft / 2,302 m 81.44° / 95.87° ASPHALT 331 ft / 101 m 164 ft / 50 m PREC-APP EDGE THRESHOLD REIL-OMNI
28 148 ft / 45 m 7,553 ft / 2,302 m 261.45° / 275.87° ASPHALT 0 ft / 0 m 200 ft / 61 m APP EDGE THRESHOLD

Popular Alternatives